Tracking 18840 objects as of 18-November-2017
HD Live streaming from Space Station
objects crossing your sky now

FENGYUN 1C DEB

Track FENGYUN 1C DEB now!
10-day predictions


NORAD ID: 29997
Int'l Code: 1999-025LX
Perigee: 853.6 km
Apogee: 971.9 km
Inclination: 99.1 °
Period: 103.1 minutes
Semi major axis: 7283 km
RCS: 0.0999 m2 (small)
Launch date: May 10, 1999
Source: People's Republic of China (PRC)
Launch site: Taiyaun Space Center, China (TSC)

Note: This is SATELLITE DEBRIS
aabbcc
Your satellite tracking list
Your tracking list is empty




NASA's NSSDC Master Catalog

Two Line Element Set (TLE):
1 29997U 99025LX  17322.09814253  .00000624  00000-0  46954-3 0  9991
2 29997  99.1337 352.0770 0081186 165.3952 256.9415 13.96598418552322
Source of the keplerian elements: AFSPC